Time,TemperatureF,DewpointF,PressureIn,WindDirection,WindDirectionDegrees,WindSpeedMPH,WindSpeedGustMPH,Humidity,HourlyPrecipIn,Conditions,Clouds,dailyrainin,SoftwareType,DateUTC
2013-02-07 15:52:00,52.0,34.9,0.00,WSW,253,3.2,11.4,52,0.00,,,0.00,WUHU216CR1000,2013-02-07 23:52:00,
2013-02-07 15:53:00,52.0,34.9,0.00,WSW,253,3.2,11.4,52,0.00,,,0.00,WUHU216CR1000,2013-02-07 23:53:00,
2013-02-07 15:58:00,52.0,34.9,0.00,WSW,253,3.2,11.4,52,0.00,,,0.00,WUHU216CR1000,2013-02-07 23:58:00,
2013-02-07 16:02:00,52.7,35.2,0.00,WSW,258,3.1,8.1,51,0.00,,,0.00,WUHU216CR1000,2013-02-08 00:02:00,
2013-02-07 16:03:00,52.7,35.2,0.00,WSW,258,3.1,11.4,51,0.00,,,0.00,WUHU216CR1000,2013-02-08 00:03:00,
2013-02-07 16:08:00,52.7,35.2,0.00,WSW,258,3.1,8.1,51,0.00,,,0.00,WUHU216CR1000,2013-02-08 00:08:00,
2013-02-07 16:17:00,53.0,35.5,0.00,West,266,2.7,9.3,51,0.00,,,0.00,WUHU216CR1000,2013-02-08 00:17:00,
2013-02-07 16:22:00,53.0,35.5,0.00,West,266,2.7,9.3,51,0.00,,,0.00,WUHU216CR1000,2013-02-08 00:22:00,
2013-02-07 16:32:00,52.6,36.5,0.00,SW,234,4.6,10.5,54,0.00,,,0.00,WUHU216CR1000,2013-02-08 00:32:00,
2013-02-07 16:37:00,52.6,36.5,0.00,SW,234,4.6,10.5,54,0.00,,,0.00,WUHU216CR1000,2013-02-08 00:37:00,
2013-02-07 16:47:00,50.2,36.6,0.00,SW,231,4.9,14.0,60,0.00,,,0.00,WUHU216CR1000,2013-02-08 00:47:00,
2013-02-07 16:52:00,50.2,36.6,0.00,SW,231,4.9,14.0,60,0.00,,,0.00,WUHU216CR1000,2013-02-08 00:52:00,
2013-02-07 17:02:00,49.4,37.1,0.00,SW,229,6.0,13.6,62,0.00,,,0.00,WUHU216CR1000,2013-02-08 01:02:00,
2013-02-07 17:07:00,49.4,37.1,0.00,SW,229,6.0,13.6,62,0.00,,,0.00,WUHU216CR1000,2013-02-08 01:07:00,
2013-02-07 17:17:00,48.4,38.0,0.00,SW,233,6.1,14.4,67,0.00,,,0.00,WUHU216CR1000,2013-02-08 01:17:00,
2013-02-07 17:22:00,48.4,38.0,0.00,SW,233,6.1,14.4,67,0.00,,,0.00,WUHU216CR1000,2013-02-08 01:22:00,
2013-02-07 17:32:00,47.2,38.9,0.00,SW,229,5.8,11.4,73,0.00,,,0.00,WUHU216CR1000,2013-02-08 01:32:00,
2013-02-07 17:37:00,47.2,38.9,0.00,SW,229,5.8,11.4,73,0.00,,,0.00,WUHU216CR1000,2013-02-08 01:37:00,
2013-02-07 17:47:00,46.5,39.2,0.00,SW,233,5.2,10.1,76,0.00,,,0.00,WUHU216CR1000,2013-02-08 01:47:00,
2013-02-07 17:52:00,46.5,39.2,0.00,SW,233,5.2,10.1,76,0.00,,,0.00,WUHU216CR1000,2013-02-08 01:52:00,
2013-02-07 18:02:00,45.9,39.5,0.00,SW,229,4.1,9.3,78,0.00,,,0.00,WUHU216CR1000,2013-02-08 02:02:00,
2013-02-07 18:07:00,45.9,39.5,0.00,SW,229,4.1,9.3,78,0.00,,,0.00,WUHU216CR1000,2013-02-08 02:07:00,
2013-02-07 18:17:00,45.3,39.7,0.00,SW,229,2.2,4.9,81,0.00,,,0.00,WUHU216CR1000,2013-02-08 02:17:00,
2013-02-07 18:22:00,45.3,39.7,0.00,SW,229,2.2,4.9,81,0.00,,,0.00,WUHU216CR1000,2013-02-08 02:22:00,
2013-02-07 18:32:00,44.5,39.7,0.00,ESE,119,1.2,2.6,83,0.00,,,0.00,WUHU216CR1000,2013-02-08 02:32:00,
2013-02-07 18:37:00,44.5,39.7,0.00,ESE,119,1.2,2.6,83,0.00,,,0.00,WUHU216CR1000,2013-02-08 02:37:00,
2013-02-07 18:47:00,43.5,39.8,0.00,ESE,118,0.1,1.1,87,0.00,,,0.00,WUHU216CR1000,2013-02-08 02:47:00,
2013-02-07 18:52:00,43.5,39.8,0.00,ESE,118,0.1,1.1,87,0.00,,,0.00,WUHU216CR1000,2013-02-08 02:52:00,
2013-02-07 19:02:00,43.0,39.6,0.00,ENE,78,0.5,1.5,88,0.00,,,0.00,WUHU216CR1000,2013-02-08 03:02:00,
2013-02-07 19:07:00,43.0,39.6,0.00,ENE,78,0.5,1.5,88,0.00,,,0.00,WUHU216CR1000,2013-02-08 03:07:00,
2013-02-07 19:17:00,42.7,39.5,0.00,South,173,1.3,2.5,89,0.00,,,0.00,WUHU216CR1000,2013-02-08 03:17:00,
2013-02-07 19:22:00,42.7,39.5,0.00,South,173,1.3,2.5,89,0.00,,,0.00,WUHU216CR1000,2013-02-08 03:22:00,
2013-02-07 19:32:00,42.5,39.5,0.00,SSE,153,1.3,3.1,89,0.00,,,0.00,WUHU216CR1000,2013-02-08 03:32:00,
2013-02-07 19:37:00,42.5,39.5,0.00,SSE,153,1.3,3.1,89,0.00,,,0.00,WUHU216CR1000,2013-02-08 03:37:00,
2013-02-07 19:47:00,41.7,38.9,0.00,ENE,61,0.4,2.1,90,0.00,,,0.00,WUHU216CR1000,2013-02-08 03:47:00,
2013-02-07 19:52:00,41.7,38.9,0.00,ENE,61,0.4,2.1,90,0.00,,,0.00,WUHU216CR1000,2013-02-08 03:52:00,
2013-02-07 20:02:00,40.4,38.5,0.00,NW,312,0.2,1.4,93,0.00,,,0.00,WUHU216CR1000,2013-02-08 04:02:00,
2013-02-07 20:07:00,40.4,38.5,0.00,NW,312,0.2,1.4,93,0.00,,,0.00,WUHU216CR1000,2013-02-08 04:07:00,
2013-02-07 20:17:00,40.7,39.1,0.00,SSW,209,2.1,3.1,94,0.00,,,0.00,WUHU216CR1000,2013-02-08 04:17:00,
2013-02-07 20:22:00,40.7,39.1,0.00,SSW,209,2.1,3.1,94,0.00,,,0.00,WUHU216CR1000,2013-02-08 04:22:00,
2013-02-07 20:32:00,40.6,39.0,0.00,SW,231,2.4,3.5,94,0.00,,,0.00,WUHU216CR1000,2013-02-08 04:32:00,
2013-02-07 20:37:00,40.6,39.0,0.00,SW,231,2.4,3.5,94,0.00,,,0.00,WUHU216CR1000,2013-02-08 04:37:00,
2013-02-07 20:47:00,40.4,39.2,0.00,WSW,243,3.6,5.9,95,0.00,,,0.00,WUHU216CR1000,2013-02-08 04:47:00,
2013-02-07 20:52:00,40.4,39.2,0.00,WSW,243,3.6,5.9,95,0.00,,,0.00,WUHU216CR1000,2013-02-08 04:52:00,
2013-02-07 21:02:00,40.6,39.2,0.00,WSW,239,5.0,7.7,95,0.00,,,0.00,WUHU216CR1000,2013-02-08 05:02:00,
2013-02-07 21:07:00,40.6,39.2,0.00,WSW,239,5.0,7.7,95,0.00,,,0.00,WUHU216CR1000,2013-02-08 05:07:00,
2013-02-07 21:17:00,40.4,39.1,0.00,SW,229,4.4,6.6,95,0.00,,,0.00,WUHU216CR1000,2013-02-08 05:17:00,
2013-02-07 21:22:00,40.4,39.1,0.00,SW,229,4.4,6.6,95,0.00,,,0.00,WUHU216CR1000,2013-02-08 05:22:00,
2013-02-07 21:32:00,40.5,39.1,0.00,SW,234,3.2,7.2,95,0.00,,,0.00,WUHU216CR1000,2013-02-08 05:32:00,
2013-02-07 21:37:00,40.5,39.1,0.00,SW,234,3.2,7.2,95,0.00,,,0.00,WUHU216CR1000,2013-02-08 05:37:00,
2013-02-07 21:47:00,40.3,39.0,0.00,WSW,250,2.9,6.2,95,0.00,,,0.00,WUHU216CR1000,2013-02-08 05:47:00,
2013-02-07 21:52:00,40.3,39.0,0.00,WSW,250,2.9,6.2,95,0.00,,,0.00,WUHU216CR1000,2013-02-08 05:52:00,
2013-02-07 22:02:00,40.6,39.6,0.00,SW,226,2.7,5.0,96,0.00,,,0.00,WUHU216CR1000,2013-02-08 06:02:00,
2013-02-07 22:07:00,40.6,39.6,0.00,SW,226,2.7,5.0,96,0.00,,,0.00,WUHU216CR1000,2013-02-08 06:07:00,
2013-02-07 22:17:00,40.4,39.4,0.00,SW,227,3.3,6.4,96,0.00,,,0.00,WUHU216CR1000,2013-02-08 06:17:00,
2013-02-07 22:22:00,40.4,39.4,0.00,SW,227,3.3,6.4,96,0.00,,,0.00,WUHU216CR1000,2013-02-08 06:22:00,
2013-02-07 22:32:00,40.1,39.3,0.00,WSW,249,2.5,4.7,97,0.00,,,0.00,WUHU216CR1000,2013-02-08 06:32:00,
2013-02-07 22:37:00,40.1,39.3,0.00,WSW,249,2.5,4.7,97,0.00,,,0.00,WUHU216CR1000,2013-02-08 06:37:00,
2013-02-07 22:47:00,39.7,39.0,0.00,SW,232,2.5,4.2,97,0.00,,,0.00,WUHU216CR1000,2013-02-08 06:47:00,
2013-02-07 22:52:00,39.7,39.0,0.00,SW,232,2.5,4.2,97,0.00,,,0.00,WUHU216CR1000,2013-02-08 06:52:00,
2013-02-07 23:02:00,39.7,39.1,0.00,WSW,245,3.3,5.2,98,0.00,,,0.00,WUHU216CR1000,2013-02-08 07:02:00,
2013-02-07 23:07:00,39.7,39.1,0.00,WSW,245,3.3,5.2,98,0.00,,,0.00,WUHU216CR1000,2013-02-08 07:07:00,
2013-02-07 23:17:00,39.5,38.9,0.00,WSW,242,4.5,7.0,98,0.00,,,0.00,WUHU216CR1000,2013-02-08 07:17:00,
2013-02-07 23:22:00,39.5,38.9,0.00,WSW,242,4.5,7.0,98,0.00,,,0.00,WUHU216CR1000,2013-02-08 07:22:00,
2013-02-07 23:32:00,39.5,38.9,0.00,WSW,248,3.9,7.3,98,0.00,,,0.00,WUHU216CR1000,2013-02-08 07:32:00,
2013-02-07 23:37:00,39.5,38.9,0.00,WSW,248,3.9,7.3,98,0.00,,,0.00,WUHU216CR1000,2013-02-08 07:37:00,
2013-02-07 23:47:00,38.9,38.1,0.00,NE,56,1.8,4.4,97,0.00,,,0.00,WUHU216CR1000,2013-02-08 07:47:00,
2013-02-07 23:52:00,38.9,38.1,0.00,NE,56,1.8,4.4,97,0.00,,,0.00,WUHU216CR1000,2013-02-08 07:52:00,